EW7157 Weather Reports


time (UTC)temp
C
wind
direction
speed
KPH
gust
KPH
rain 1hr
cm
rain 24hr
cm
rain mn
cm
humidity
%
barometer
mb
20260510040929 9 180 0.0 0.0 0.00 0.25 0.00 95 1033.4
20260510040017 10 180 0.0 0.0 0.00 0.25 0.00 94 1033.5
20260510035914 10 180 0.0 0.0 0.00 0.25 0.25 95 1033.5
20260510034916 10 180 0.0 0.0 0.00 0.25 0.25 95 1033.3
20260510033915 10 180 0.0 0.0 0.00 0.25 0.25 95 1033.2
20260510032917 10 180 0.0 0.0 0.00 0.25 0.25 93 1033.1
20260510031915 10 180 0.0 0.0 0.00 0.25 0.25 94 1033.0
20260510030915 10 180 0.0 0.0 0.00 0.25 0.25 94 1032.9
20260510025817 10 180 0.0 0.0 0.00 0.25 0.25 94 1032.9
20260510024817 10 180 0.0 0.0 0.00 0.25 0.25 94 1032.8
20260510023816 10 180 0.0 0.0 0.00 0.25 0.25 94 1032.9
20260510023716 10 180 0.0 0.0 0.00 0.25 0.25 94 1032.9
20260510022716 10 180 0.0 0.0 0.00 0.25 0.25 94 1032.9
20260510021814 10 180 0.0 0.0 0.00 0.25 0.25 94 1032.7
20260510020817 10 180 0.0 0.0 0.00 0.25 0.25 93 1032.9
20260510015816 10 180 0.0 0.0 0.00 0.25 0.25 93 1032.7
20260510014817 11 180 0.0 0.0 0.00 0.25 0.25 92 1032.8
20260510013816 11 180 0.0 0.0 0.00 0.25 0.25 94 1032.8
20260510012816 11 180 0.0 0.0 0.00 0.25 0.25 93 1032.8
20260510011817 11 180 0.0 0.0 0.00 0.25 0.25 92 1032.6
20260510010817 11 180 0.0 0.0 0.00 0.25 0.25 94 1032.8
20260510005914 11 180 0.0 0.0 0.00 0.25 0.25 93 1032.6
20260510005816 11 180 0.0 0.0 0.00 0.25 0.25 93 1032.6
20260510004915 11 180 0.0 0.0 0.00 0.25 0.25 93 1032.3
20260510003916 11 180 0.0 0.0 0.00 0.25 0.25 93 1032.4
20260510001915 12 180 0.0 0.0 0.00 0.25 0.25 92 1032.3
20260510001014 12 180 0.0 0.0 0.00 0.25 0.25 92 1032.3
20260509235917 12 180 0.0 0.0 0.00 0.25 0.25 91 1032.3
20260509235815 12 180 0.0 0.0 0.00 0.25 0.25 92 1032.3
20260509234817 12 180 0.0 0.0 0.00 0.25 0.25 91 1032.4
20260509233816 12 180 0.0 0.0 0.00 0.25 0.25 91 1032.4
20260509232816 12 180 0.0 0.0 0.00 0.25 0.25 90 1032.3
20260509225914 13 180 0.0 0.0 0.00 0.25 0.25 91 1032.2
20260509225817 13 180 0.0 0.0 0.00 0.25 0.25 91 1032.3
20260509224915 13 180 0.0 0.0 0.00 0.25 0.25 91 1032.2
20260509223918 13 180 0.0 0.0 0.00 0.25 0.25 91 1032.3
20260509222915 13 180 0.0 0.0 0.00 0.25 0.25 90 1032.3
20260509215915 13 180 0.0 0.0 0.03 0.25 0.25 89 1032.4
20260509215816 13 180 0.0 0.0 0.03 0.25 0.25 89 1032.3
20260509214817 13 180 0.0 0.0 0.23 0.25 0.25 88 1032.4
20260509212816 13 180 0.0 0.0 0.23 0.25 0.25 88 1032.7
20260509211915 13 180 0.0 0.0 0.23 0.25 0.25 89 1032.8
20260509210915 13 180 0.0 0.0 0.20 0.23 0.23 89 1032.6
20260509205918 13 180 0.0 0.0 0.23 0.23 0.23 85 1032.5
20260509205817 13 180 0.0 0.0 0.23 0.23 0.23 85 1032.5
20260509204816 13 180 0.0 0.0 0.03 0.03 0.03 84 1032.6
20260509202917 14 180 0.0 0.0 0.03 0.03 0.03 81 1032.4
20260509201915 14 180 0.0 0.0 0.03 0.03 0.03 82 1032.5
20260509200916 14 112 0.0 0.0 0.03 0.03 0.00 82 1032.3
20260509200816 14 112 0.0 0.0 0.00 0.00 0.00 82 1032.3
20260509195914 14 180 0.0 0.0 0.00 0.00 0.00 80 1032.6
20260509194918 14 135 0.0 3.2 0.00 0.00 0.00 79 1032.8
20260509193916 14 90 0.0 0.0 0.00 0.00 0.00 79 1032.8
20260509191915 14 135 0.0 1.6 0.00 0.00 0.00 80 1033.3
20260509190916 15 135 0.0 1.6 0.00 0.00 0.00 80 1033.5
20260509185917 15 180 0.0 0.0 0.00 0.00 0.00 79 1033.2
20260509184915 15 157 0.0 0.0 0.00 0.00 0.00 77 1033.3
20260509184816 15 163 1.6 3.2 0.00 0.00 0.00 77 1033.3
20260509183816 15 135 0.0 1.6 0.00 0.00 0.00 76 1033.5
20260509182817 15 135 0.0 0.0 0.00 0.00 0.00 74 1033.6
20260509181817 15 135 0.0 1.6 0.00 0.00 0.00 72 1033.7
20260509180915 16 180 0.0 1.6 0.00 0.00 0.00 71 1033.7
20260509175816 16 135 0.0 1.6 0.00 0.00 0.00 69 1033.6
20260509174816 16 112 0.0 0.0 0.00 0.00 0.00 68 1033.6
20260509171915 16 135 1.6 3.2 0.00 0.00 0.00 69 1033.6
20260509171816 16 135 0.0 3.2 0.00 0.00 0.00 69 1033.5
20260509170817 16 180 0.0 0.0 0.00 0.00 0.00 72 1033.8
20260509165817 16 124 1.6 1.6 0.00 0.00 0.00 74 1033.7
20260509165718 16 95 0.0 1.6 0.00 0.00 0.00 73 1033.5
20260509164815 16 90 0.0 0.0 0.00 0.00 0.00 74 1033.6
20260509163814 16 178 0.0 1.6 0.00 0.00 0.00 73 1033.6
20260509163716 16 176 0.0 3.2 0.00 0.00 0.00 73 1033.6
20260509162715 16 180 0.0 0.0 0.00 0.00 0.00 71 1033.6
20260509160716 17 337 0.0 0.0 0.00 0.00 0.00 65 1033.9
20260509155714 17 315 0.0 0.0 0.00 0.00 0.00 62 1033.9
20260509155615 17 315 0.0 0.0 0.00 0.00 0.00 61 1034.1
20260509154617 17 131 1.6 3.2 0.00 0.00 0.00 62 1034.1
20260509153716 17 135 0.0 3.2 0.00 0.00 0.00 65 1034.2
20260509152714 17 90 0.0 0.0 0.00 0.00 0.00 66 1034.4
20260509151715 17 90 0.0 0.0 0.00 0.00 0.00 66 1034.3
20260509150730 17 90 0.0 0.0 0.00 0.00 0.00 63 1034.3
20260509145815 17 90 0.0 0.0 0.00 0.00 0.00 64 1034.3
20260509144815 17 90 0.0 0.0 0.00 0.00 0.00 64 1034.2
20260509144716 17 90 0.0 0.0 0.00 0.00 0.00 64 1034.0
20260509143716 17 330 0.0 1.6 0.00 0.00 0.00 65 1034.1
20260509142716 17 247 0.0 0.0 0.00 0.00 0.00 65 1034.0
20260509141716 17 45 0.0 0.0 0.00 0.00 0.00 66 1034.1
20260509140717 17 360 0.0 0.0 0.00 0.00 0.00 68 1033.8
20260509135715 16 90 0.0 0.0 0.00 0.00 0.00 68 1033.8
20260509134714 16 90 0.0 3.2 0.00 0.00 0.00 68 1033.8
20260509133718 16 360 0.0 4.8 0.00 0.00 0.00 70 1033.9
20260509132815 16 225 0.0 3.2 0.00 0.00 0.00 71 1033.9
20260509131832 16 270 0.0 0.0 0.00 0.00 0.00 71 1033.8
20260509130914 15 318 0.0 3.2 0.00 0.00 0.00 72 1034.0
20260509125916 15 270 0.0 0.0 0.00 0.00 0.00 72 1034.0
20260509124914 15 26 0.0 8.0 0.00 0.00 0.00 73 1034.1
20260509124818 15 45 0.0 0.0 0.00 0.00 0.00 74 1034.0
20260509123915 14 45 0.0 1.6 0.00 0.00 0.00 74 1034.1
20260509122915 14 135 0.0 6.4 0.00 0.00 0.00 74 1034.1
20260509120916 13 360 0.0 0.0 0.00 0.00 0.00 75 1034.0
20260509120817 13 360 0.0 0.0 0.00 0.00 0.00 76 1034.1
20260509115816 13 360 0.0 0.0 0.00 0.00 0.00 76 1034.0
20260509113816 12 360 0.0 0.0 0.00 0.00 0.00 78 1034.2
20260509112816 12 22 0.0 1.6 0.00 0.00 0.00 78 1034.0
20260509111815 12 270 0.0 0.0 0.00 0.00 0.00 78 1034.0
20260509110815 12 270 0.0 0.0 0.00 0.00 0.00 77 1034.0
20260509105815 12 270 0.0 0.0 0.00 0.00 0.00 76 1033.9
20260509101915 12 360 0.0 0.0 0.00 0.00 0.00 75 1033.9
20260509100916 12 360 0.0 0.0 0.00 0.00 0.00 74 1033.9
20260509095916 12 360 0.0 0.0 0.00 0.00 0.00 74 1033.8
20260509094917 12 360 0.0 0.0 0.00 0.00 0.00 73 1033.8
20260509093916 12 360 0.0 0.0 0.00 0.00 0.00 72 1033.8
20260509092916 12 360 0.0 0.0 0.00 0.00 0.00 72 1033.8
20260509091915 12 360 0.0 0.0 0.00 0.00 0.00 71 1033.9
20260509085915 12 360 0.0 1.6 0.00 0.00 0.00 70 1033.9
20260509084915 12 360 0.0 0.0 0.00 0.00 0.00 70 1033.9
20260509083915 12 360 0.0 0.0 0.00 0.00 0.00 69 1034.1
20260509082915 12 360 0.0 0.0 0.00 0.00 0.00 68 1034.1
20260509081914 12 360 0.0 0.0 0.00 0.00 0.00 68 1034.0
20260509081815 12 360 0.0 0.0 0.00 0.00 0.00 68 1033.9
20260509080815 12 45 0.0 0.0 0.00 0.00 0.00 69 1034.1
20260509074914 12 135 0.0 0.0 0.00 0.00 0.00 70 1034.0
20260509073915 12 135 0.0 0.0 0.00 0.00 0.00 69 1034.0
20260509073816 12 135 0.0 0.0 0.00 0.00 0.00 69 1034.1
20260509072814 12 180 0.0 0.0 0.00 0.00 0.00 69 1034.2
20260509070914 12 180 0.0 0.0 0.00 0.00 0.00 69 1034.2
20260509065916 12 180 0.0 0.0 0.00 0.00 0.00 68 1034.4
20260509063917 12 135 0.0 0.0 0.00 0.00 0.00 68 1034.5
20260509062916 12 135 0.0 0.0 0.00 0.00 0.00 66 1034.5
20260509061815 12 135 0.0 0.0 0.00 0.00 0.00 67 1034.8
20260509060915 13 135 0.0 0.0 0.00 0.00 0.00 66 1034.8
20260509055014 13 135 0.0 0.0 0.00 0.00 0.00 66 1034.8
20260509054014 13 135 0.0 0.0 0.00 0.00 0.00 65 1034.9
20260509053016 13 135 0.0 0.0 0.00 0.00 0.00 64 1035.0
20260509051915 13 135 0.0 0.0 0.00 0.00 0.00 64 1035.2
20260509045916 13 135 0.0 0.0 0.00 0.00 0.00 63 1035.1
20260509043917 13 135 0.0 0.0 0.00 0.00 0.00 63 1035.1
20260509042915 13 135 0.0 0.0 0.00 0.00 0.00 63 1035.2
20260509042014 13 135 0.0 0.0 0.00 0.00 0.00 62 1035.1
20260509041916 13 135 0.0 0.0 0.00 0.00 0.00 62 1035.2